Regional Weather Roundup
Issued by NWS Charleston, WV

Home | Current Version | Previous Version | Graphics & Text | Print | Product List | Glossary On
Versions: 1 2 3 4 5 6 7 8 9 10 11 12 13 14 15 16 17 18 19 20 21 22 23 24 25 26 27 28
000
ASUS41 KRLX 042110
RWRRLX
West Virginia Regional Weather Roundup
National Weather Service Charleston WV
500 PM EDT WED MAY 04 2016

Note: "fair" indicates few or no clouds below 12,000 feet with no
significant weather and/or obstructions to visibility.

WVZ003-042200-
Northern Panhandle of West Virginia

CITY           SKY/WX    TMP DP  RH WIND       PRES   REMARKS
WHEELING         N/A     61  45  55 SE12      29.61S
$$

WVZ009-042200-
Northwest West Virginia

CITY           SKY/WX    TMP DP  RH WIND       PRES   REMARKS
PARKERSBURG    LGT RAIN  56  45  66 W14G20    29.67R
$$

WVZ006-042200-
Western West Virginia

CITY           SKY/WX    TMP DP  RH WIND       PRES   REMARKS
HUNTINGTON     LGT RAIN  55  48  77 VRB3      29.67R
$$

WVZ015-042200-
West Central West Virginia

CITY           SKY/WX    TMP DP  RH WIND       PRES   REMARKS
CHARLESTON     PTSUNNY   63  42  46 W9        29.63S
$$

WVZ022-031-042200-
North Central West Virginia

CITY           SKY/WX    TMP DP  RH WIND       PRES   REMARKS
CLARKSBURG     PTSUNNY   55  48  77 SE6       29.64F
MORGANTOWN     CLOUDY    52  46  80 CALM      29.66F
$$

WVZ025-035-042-045-042200-
Southern West Virginia

CITY           SKY/WX    TMP DP  RH WIND       PRES   REMARKS
BECKLEY        LGT RAIN  50  44  80 S6        29.67R
LOGAN          NOT AVBL
BLUEFIELD      CLOUDY    56  36  47 W9        29.67F
LEWISBURG        N/A     56  40  53 SW5       29.65F
$$

WVZ047-042200-
Northern Mountains of West Virginia

CITY           SKY/WX    TMP DP  RH WIND       PRES   REMARKS
ELKINS         CLOUDY    55  41  59 VRB6      29.66F
$$

WVZ052-042200-
Eastern Panhandle of West Virginia

CITY           SKY/WX    TMP DP  RH WIND       PRES   REMARKS
MARTINSBURG    LGT RAIN  57  50  77 NW9       29.63R
PETERSBURG     CLOUDY    65  49  56 CALM      29.62F
$$




USA.gov is the U.S. government's official web portal to all federal, state and local government web resources and services.